#timestamp,LO_Frequency,Hit,StdDev 
1617624015.8,286047001.2,N
1617624035.7,286047000.8,N
1617624055.5,286047001.1,N
1617624075.3,286046998.3,N
1617624095.2,286046998.1,N
1617624115.0,286047000.9,N
1617624115.9,286047000.9,N
1617624135.8,286047001.1,N
1617624155.6,286046998.2,N
1617624175.4,286046998.1,N
1617624195.3,286046998.1,N
1617624215.1,286046998.6,N
1617624235.9,286046998.2,N
1617624255.7,286047001.2,N
1617624275.5,286046998.1,N
1617624295.4,286046998.6,N
1617624315.2,286046998.6,N
1617624335.0,286046998.5,N
1617624335.9,286046998.5,N
1617624355.8,286046998.2,N
1617624375.6,286046998.3,N
1617624395.5,286046998.3,N
1617624415.3,286046998.3,N
1617624435.1,286046998.6,N
1617624455.9,286046998.4,N
1617624475.7,286046998.6,N
1617624495.5,286046998.6,N
1617624515.4,286046998.2,N
1617624535.2,286046998.2,N
1617624555.1,286046998.5,N
1617624556.0,286046998.5,N
1617624575.8,286046998.2,N
1617624595.6,286046998.5,N
1617624615.5,286047001.1,N
1617624635.3,286047001.2,N
1617624655.2,286046998.3,N
1617624675.9,286046998.2,N
1617624695.7,286046998.4,N
1617624715.6,286046998.7,N
1617624735.4,286046998.3,N
1617624755.2,286046998.2,N
1617624775.1,286046998.4,N
1617624776.0,286046998.4,N
1617624795.8,286046998.6,N
1617624815.7,286047000.6,N
1617624835.5,286046998.2,N
1617624885.4,286046998.6,E
1617624895.3,286047000.9,N
1617624915.1,286047002.7,P
1617624935.9,286046999.7,N
1617624955.7,286046999.8,N
1617624975.5,286046999.8,N
1617624995.4,286046999.8,N
1617625015.2,286046999.8,N
1617625035.0,286047002.7,N
1617625036.0,286047002.7,N
1617625055.8,286047002.3,N
1617625075.6,286047002.6,N
1617625095.5,286047002.7,N
1617625115.3,286047002.3,N
1617625135.1,286047002.2,N
1617625155.9,286047002.8,N
1617625175.7,286046999.8,N
1617625195.6,286047002.3,N
1617625215.4,286047000.1,N
1617625235.2,286047002.4,N
1617625255.1,286047000.0,N
1617625256.0,286047000.0,N
1617625275.8,286046999.7,N
1617625295.6,286047002.3,N
1617625315.5,286047002.3,N
1617625335.3,286047002.4,N
1617625355.2,286047002.3,N
1617625375.9,286047000.1,N
1617625395.7,286047002.5,N
1617625415.6,286047002.3,N
1617625435.4,286047002.7,N
1617625455.2,286047002.8,N
1617625475.1,286047002.3,N
1617625476.0,286047002.3,N
1617625495.8,286047002.3,N
1617625515.7,286047002.3,N
1617625535.5,286047002.5,N
1617625555.3,286047002.7,N
1617625575.2,286047002.8,N
1617625595.0,286047002.8,N
1617625595.9,286047002.8,N
1617625615.8,286047002.7,N
1617625635.6,286047002.3,N
1617625655.4,286047002.1,N
1617625675.3,286047000.0,N
1617625695.1,286047002.4,N
1617625715.8,286047002.3,N
1617625735.7,286047002.3,N
1617625755.5,286047001.9,N
1617625775.4,286047002.2,N
1617625795.2,286047002.6,N
1617625815.0,286047002.6,N
1617625815.9,286047002.6,Y
1617625835.8,286046998.3,P
1617625855.6,286046998.6,N
1617625875.5,286046998.7,N
1617625895.3,286046998.7,N
1617625915.1,286046998.7,N
1617625935.9,286046998.8,N
1617625955.7,286046999.0,N
1617625975.5,286046998.9,N
1617625995.4,286046998.7,N
1617626015.2,286046998.9,N
1617626035.1,286046998.9,N
1617626036.0,286046998.9,N
1617626055.8,286046998.9,N
1617626075.6,286046998.6,N
1617626095.5,286046999.3,N
1617626115.3,286046998.9,N
1617626135.1,286046998.7,N
1617626155.9,286046998.6,N
1617626175.7,286046999.0,N
1617626195.6,286046998.6,N
1617626215.4,286046998.9,N
1617626235.2,286046999.0,N
1617626255.1,286046998.9,N
1617626256.0,286046998.9,N
1617626275.8,286046999.3,N
1617626295.6,286046998.8,N
1617626315.5,286046999.3,N
1617626335.3,286046999.3,N
1617626355.2,286046999.4,N
1617626375.9,286046999.4,N
1617626395.7,286046999.3,N
1617626415.6,286046998.8,Y
1617626435.4,286047000.7,P
1617626455.3,286047000.5,N
1617626475.1,286047000.8,N
1617626476.0,286047000.8,N
1617626495.8,286046998.5,N
1617626515.7,286047000.4,N
1617626535.5,286047001.2,N
1617626555.3,286047000.4,N
1617626575.2,286047000.5,N
1617626595.0,286047000.9,N
1617626595.9,286047000.9,N
1617626615.8,286047000.2,N
1617626635.6,286047000.0,N
1617626655.4,286047000.9,N
1617626675.3,286047000.0,N
1617626695.1,286047000.9,N
1617626715.8,286047000.4,N
1617626735.7,286047000.5,N
1617626755.5,286047000.4,N
1617626775.4,286046999.9,N
1617626795.2,286047000.0,N
1617626815.0,286047000.5,N
1617626815.9,286047000.5,N
1617626835.8,286047000.9,N
1617626855.6,286047000.0,N
1617626875.4,286047000.0,N
1617626895.3,286046999.8,N
1617626915.1,286047000.9,N
1617626935.9,286047000.6,N
1617626955.7,286047000.3,N
1617626975.5,286047000.1,N
1617626995.4,286047000.6,N
1617627015.2,286047000.2,N
1617627035.1,286047001.0,N
1617627036.0,286047001.0,N
1617627055.8,286047000.4,N
1617627075.6,286047000.7,N
1617627095.5,286047000.7,N
1617627115.3,286047000.7,N
1617627135.1,286047000.9,N
1617627155.9,286047001.1,N
1617627175.7,286047000.7,N
1617627195.6,286047001.1,N
1617627215.4,286046998.1,Y
1617627235.2,286046998.7,P
1617627255.1,286046998.4,N
1617627256.0,286046998.4,N
1617627275.8,286046998.9,N
1617627295.6,286046999.3,N
1617627315.5,286046998.4,N
1617627335.3,286046998.7,N
1617627355.2,286046998.9,N
1617627375.9,286046998.4,N
1617627395.7,286046998.2,N
1617627415.6,286046998.1,Y
1617627435.4,286047002.8,P
1617627455.3,286046999.9,N
1617627475.1,286047000.5,N
1617627476.0,286047000.5,N
1617627495.8,286047000.9,N
1617627515.7,286047000.9,N
1617627535.5,286047000.7,N
1617627555.3,286047001.1,N
1617627575.2,286047000.0,N
1617627595.0,286047000.7,N
1617627595.9,286047000.7,N
